Date,TemperatureHighF,TemperatureAvgF,TemperatureLowF,DewpointHighF,DewpointAvgF,DewpointLowF,HumidityHigh,HumidityAvg,HumidityLow,PressureMaxIn,PressureMinIn,WindSpeedMaxMPH,WindSpeedAvgMPH,GustSpeedMaxMPH,PrecipitationSumIn
2013-1-1,37.0,31.7,24.0,36.0,30.4,23.0,98,96,92,30.17,29.94,6,3,0,0.00
2013-1-2,35.0,26.5,20.0,26.0,21.8,19.0,95,83,57,30.21,30.12,4,1,0,0.00
2013-1-3,42.0,30.7,21.0,32.0,24.7,19.0,95,80,53,30.37,30.20,4,1,0,0.00
2013-1-4,47.0,33.9,21.0,29.0,24.4,19.0,94,71,42,30.40,30.26,5,1,0,0.00
2013-1-5,43.0,36.6,29.0,35.0,30.4,23.0,92,78,69,30.26,30.09,7,2,0,0.00
2013-1-6,46.0,34.8,26.0,33.0,25.4,20.0,92,71,40,30.29,30.15,7,3,0,0.00
2013-1-7,52.0,35.8,22.0,31.0,24.5,18.0,90,66,38,30.27,30.04,6,2,0,0.00
2013-1-8,58.0,42.3,29.0,46.0,35.0,23.0,96,76,54,30.11,29.95,6,1,0,0.00
2013-1-9,54.0,49.7,47.0,47.0,44.0,39.0,98,82,62,30.23,30.10,10,4,0,0.00
2013-1-10,59.0,50.3,46.0,56.0,47.3,40.0,95,89,65,30.10,29.69,9,5,0,0.00
2013-1-11,66.0,54.7,44.0,48.0,45.6,42.0,95,74,49,29.77,29.61,9,5,0,0.00
2013-1-12,58.0,43.8,29.0,52.0,37.8,27.0,94,81,49,29.84,29.67,9,4,0,0.00
2013-1-13,29.0,23.2,17.0,27.0,19.9,14.0,93,87,79,30.29,29.84,4,0,0,0.00
2013-1-14,33.0,23.3,16.0,18.0,16.0,13.0,91,74,50,30.42,30.27,6,2,0,0.00
2013-1-15,34.0,25.6,18.0,23.0,17.8,14.0,88,74,43,30.27,30.10,5,2,0,0.00
2013-1-16,43.0,29.1,17.0,23.0,19.4,15.0,93,70,40,30.14,30.04,6,1,0,0.00
2013-1-17,47.0,36.1,26.0,34.0,26.7,20.0,85,70,47,30.41,30.11,7,3,0,0.00
2013-1-18,56.0,39.1,24.0,33.0,27.6,22.0,93,67,35,30.43,30.13,8,3,0,0.00
2013-1-19,62.0,48.9,40.0,38.0,33.8,28.0,76,57,40,30.13,29.97,9,3,0,0.00
2013-1-20,61.0,45.6,32.0,37.0,30.4,19.0,82,57,37,30.16,30.01,7,2,0,0.00
2013-1-21,39.0,29.3,22.0,21.0,16.7,14.0,72,60,41,30.29,30.16,7,3,0,0.00
2013-1-22,47.0,32.5,21.0,27.0,21.4,15.0,81,65,44,30.25,30.14,5,1,0,0.00
2013-1-23,62.0,42.9,26.0,44.0,34.1,22.0,88,72,51,30.18,30.05,7,2,0,0.00
2013-1-24,44.0,38.5,35.0,35.0,23.9,18.0,70,56,44,30.21,30.01,7,5,0,0.00
2013-1-25,49.0,38.2,30.0,35.0,31.2,26.0,96,77,52,30.16,30.02,4,1,0,0.00
2013-1-26,61.0,46.1,35.0,30.0,26.2,21.0,76,50,23,30.18,30.03,6,2,0,0.00
2013-1-27,60.0,53.0,46.0,56.0,47.4,30.0,90,81,51,30.03,29.80,9,5,0,0.00
2013-1-28,72.0,65.8,59.0,62.0,60.4,56.0,90,83,71,29.84,29.67,10,7,0,0.00
2013-1-29,68.0,60.2,46.0,63.0,57.0,45.0,97,89,80,29.68,29.33,12,5,0,0.00
2013-1-30,46.0,33.4,25.0,45.0,29.9,21.0,97,87,77,29.97,29.36,14,8,0,0.00
2013-1-31,46.0,32.9,20.0,31.0,23.4,11.0,90,69,55,30.36,29.97,10,5,0,0.00
2013-2-1,47.0,27.3,14.0,19.0,13.2,8.0,82,58,32,30.39,30.11,5,2,0,0.00
2013-2-2,53.0,39.3,25.0,33.0,26.4,18.0,81,61,43,30.18,30.10,10,3,0,0.00
2013-2-3,54.0,44.6,38.0,32.0,26.8,21.0,68,51,30,30.18,29.88,8,3,0,0.00
2013-2-4,60.0,49.3,40.0,46.0,37.5,26.0,85,65,49,29.88,29.71,10,3,0,0.00
2013-2-5,64.0,46.6,31.0,50.0,34.9,29.0,95,68,32,29.95,29.80,8,2,0,0.00
2013-2-6,65.0,50.3,37.0,43.0,37.0,31.0,83,62,43,29.99,29.84,6,2,0,0.00
2013-2-7,56.0,50.8,44.0,53.0,47.6,40.0,96,89,79,29.97,29.74,8,3,0,0.00
2013-2-8,53.0,41.7,33.0,41.0,32.8,30.0,89,73,42,30.19,29.96,6,3,0,0.00
2013-2-9,47.0,40.3,34.0,42.0,33.5,28.0,93,78,48,30.12,29.74,7,4,0,0.00
2013-2-10,59.0,52.1,42.0,53.0,39.2,27.0,96,66,34,29.92,29.54,14,8,0,0.00
2013-2-11,54.0,40.4,30.0,29.0,27.2,25.0,84,61,35,30.09,29.92,7,2,0,0.00
2013-2-12,46.0,38.5,33.0,35.0,29.8,26.0,95,72,53,30.05,29.82,5,2,0,0.00
2013-2-13,51.0,39.9,33.0,38.0,33.3,32.0,97,79,50,29.93,29.84,8,4,0,0.00
2013-2-14,57.0,45.0,32.0,37.0,32.4,28.0,85,62,45,30.06,29.86,6,3,0,0.00
2013-2-15,44.0,35.3,25.0,31.0,22.2,14.0,82,60,36,30.23,30.06,9,4,0,0.00
2013-2-16,37.0,31.6,24.0,25.0,20.7,16.0,86,66,47,30.26,30.05,8,4,0,0.00
2013-2-17,63.0,47.0,29.0,34.0,26.5,16.0,67,46,29,30.06,29.72,8,3,0,0.00
2013-2-18,59.0,50.7,35.0,52.0,40.1,26.0,81,68,43,30.00,29.47,17,9,0,0.00
2013-2-19,45.0,34.6,25.0,26.0,21.3,18.0,77,59,39,30.23,29.99,10,4,0,0.00
2013-2-20,35.0,31.6,29.0,31.0,22.4,14.0,91,70,49,30.22,29.98,6,3,0,0.00
2013-2-21,36.0,33.0,29.0,35.0,30.4,25.0,96,90,80,29.99,29.60,9,4,0,0.00
2013-2-22,37.0,29.2,22.0,32.0,22.8,18.0,91,77,56,30.04,29.78,10,5,0,0.00
2013-2-23,45.0,31.7,21.0,26.0,22.3,19.0,92,70,45,30.04,29.88,6,1,0,0.00
2013-2-24,59.0,43.0,27.0,36.0,30.4,23.0,89,64,37,29.91,29.73,6,2,0,0.00
2013-2-25,43.0,39.4,37.0,37.0,33.8,30.0,93,81,64,29.78,29.33,10,5,0,0.00
2013-2-26,36.0,33.5,32.0,34.0,31.8,31.0,96,93,90,29.80,29.28,10,7,0,0.00
2013-2-27,39.0,34.2,33.0,33.0,30.2,27.0,93,85,73,29.99,29.76,12,7,0,0.00
2013-2-28,36.0,32.4,29.0,29.0,27.5,26.0,91,82,72,30.12,29.98,8,6,0,0.00
2013-3-1,32.0,29.8,27.0,27.0,23.3,20.0,87,77,68,30.19,30.08,10,5,0,0.00
2013-3-2,40.0,30.5,25.0,24.0,21.7,19.0,88,71,44,30.26,30.13,7,4,0,0.00
2013-3-3,58.0,41.5,25.0,32.0,26.8,20.0,82,59,36,30.13,29.68,8,3,0,0.00
2013-3-4,66.0,53.8,45.0,47.0,40.2,32.0,86,61,47,29.71,29.48,11,3,0,0.00
2013-3-5,44.0,38.2,32.0,35.0,27.0,20.0,92,65,45,30.22,29.71,15,10,0,0.00
2013-3-6,49.0,35.8,23.0,27.0,22.2,18.0,82,59,35,30.32,30.16,7,3,0,0.00
2013-3-7,64.0,49.0,36.0,32.0,27.6,24.0,68,47,22,30.17,30.03,7,2,0,0.00
2013-3-8,62.0,52.7,42.0,40.0,35.4,32.0,69,53,41,30.12,29.93,8,4,0,0.00
2013-3-9,68.0,58.5,51.0,57.0,47.0,36.0,96,67,48,29.92,29.55,10,4,0,0.00
2013-3-10,55.0,44.5,30.0,54.0,42.7,27.0,96,93,87,29.85,29.52,13,6,0,0.00
2013-3-11,44.0,34.0,27.0,29.0,25.9,23.0,92,74,44,29.96,29.81,11,6,0,0.00
2013-3-12,55.0,42.8,30.0,32.0,26.9,22.0,79,56,32,30.23,29.95,9,4,0,0.00
2013-3-13,52.0,39.5,28.0,27.0,21.3,17.0,76,51,26,30.38,30.23,5,2,0,0.00
2013-3-14,71.0,51.5,34.0,42.0,32.6,22.0,68,50,33,30.28,30.00,11,3,0,0.00
2013-3-15,79.0,64.8,50.0,49.0,45.7,41.0,78,52,31,30.01,29.65,9,4,0,0.00
2013-3-16,76.0,62.5,50.0,52.0,46.3,41.0,72,56,41,29.71,29.60,9,4,0,0.00
2013-3-17,50.0,43.9,41.0,43.0,40.7,38.0,97,89,70,29.74,29.56,7,4,0,0.00
2013-3-18,55.0,45.4,38.0,45.0,38.4,29.0,97,79,40,29.94,29.58,10,4,0,0.00
2013-3-19,57.0,44.6,34.0,30.0,25.4,19.0,78,51,24,30.15,29.91,8,3,0,0.00
2013-3-20,48.0,38.5,32.0,32.0,23.5,15.0,86,58,30,30.26,30.02,9,3,0,0.00
2013-3-21,43.0,35.2,32.0,33.0,23.7,11.0,93,66,27,30.02,29.70,7,4,0,0.00
2013-3-22,40.0,36.7,33.0,38.0,34.9,31.0,95,93,90,29.85,29.73,6,3,0,0.00
2013-3-23,41.0,38.1,36.0,40.0,36.9,34.0,97,95,94,29.83,29.61,5,3,0,0.00
2013-3-24,40.0,33.1,27.0,39.0,30.3,22.0,97,90,77,30.03,29.55,13,8,0,0.00
2013-3-25,34.0,28.7,24.0,26.0,22.5,19.0,88,78,61,30.27,30.02,11,7,0,0.00
2013-3-26,45.0,32.5,23.0,26.0,23.0,21.0,93,70,40,30.36,30.23,6,2,0,0.00
2013-3-27,59.0,43.6,26.0,31.0,25.6,22.0,87,54,25,30.25,30.04,7,2,0,0.00
2013-3-28,69.0,56.4,45.0,49.0,40.5,29.0,74,56,46,30.10,29.98,7,2,0,0.00
2013-3-29,68.0,58.5,52.0,57.0,52.1,47.0,95,80,62,30.07,29.96,4,2,0,0.00
2013-3-30,69.0,59.4,53.0,57.0,53.5,-99.9,96,85,66,29.98,29.74,10,2,0,0.00
2013-3-31,69.0,57.6,50.0,55.0,47.2,38.0,98,73,34,29.85,29.72,14,3,0,0.00
2013-4-1,63.0,49.1,41.0,44.0,40.1,34.0,90,73,46,30.07,29.84,8,3,0,0.00
2013-4-2,43.0,38.0,36.0,36.0,34.5,31.0,94,88,66,30.16,30.06,7,4,0,0.00
2013-4-3,50.0,43.0,37.0,36.0,28.5,24.0,84,58,39,30.17,30.07,10,4,0,0.00
2013-4-4,58.0,47.3,40.0,39.0,35.1,31.0,84,65,38,30.07,29.96,5,2,0,0.00
2013-4-5,71.0,52.8,35.0,41.0,35.1,29.0,84,55,25,30.10,29.87,4,1,0,0.00
2013-4-6,74.0,62.2,53.0,49.0,44.0,35.0,65,52,37,29.88,29.66,11,5,0,0.00
2013-4-7,76.0,64.7,51.0,59.0,54.4,48.0,93,70,53,29.77,29.60,9,4,0,0.00
2013-4-8,71.0,65.4,60.0,61.0,58.3,55.0,92,78,70,29.66,29.57,9,4,0,0.00
2013-4-9,80.0,71.0,64.0,64.0,60.2,57.0,80,69,55,29.63,29.55,7,4,0,0.00
2013-4-10,73.0,47.1,37.0,65.0,44.6,36.0,96,91,68,29.78,29.57,13,6,0,0.00
2013-4-11,51.0,39.9,34.0,36.0,32.9,31.0,96,78,47,29.79,29.66,11,6,0,0.00
2013-4-12,56.0,44.5,35.0,38.0,33.1,29.0,87,66,45,29.93,29.72,10,4,0,0.00
2013-4-13,70.0,54.5,41.0,48.0,41.7,35.0,84,64,41,29.95,29.67,7,2,0,0.00
2013-4-14,79.0,66.6,56.0,53.0,49.0,44.0,71,55,36,29.68,29.39,10,4,0,0.00
2013-4-15,79.0,67.4,56.0,65.0,57.7,47.0,85,72,61,29.68,29.52,8,4,0,0.00
2013-4-16,78.0,60.9,51.0,64.0,55.5,49.0,95,84,62,29.83,29.66,7,3,0,0.00
2013-4-17,82.0,70.8,58.0,69.0,62.9,55.0,97,77,59,29.81,29.47,9,4,0,0.00
2013-4-18,75.0,50.1,38.0,67.0,46.0,30.0,97,86,71,29.88,29.39,13,8,0,0.00
2013-4-19,55.0,43.3,33.0,35.0,29.1,26.0,82,60,37,30.02,29.88,12,6,0,0.00
2013-4-20,68.0,52.0,35.0,41.0,35.4,30.0,85,57,30,30.11,29.98,5,1,0,0.00
2013-4-21,70.0,58.3,48.0,43.0,39.7,36.0,74,52,30,30.14,29.99,8,3,0,0.00
2013-4-22,72.0,59.6,45.0,46.0,41.9,38.0,78,54,35,30.06,29.77,6,2,0,0.00
2013-4-23,60.0,50.0,36.0,54.0,44.7,34.0,95,84,59,30.00,29.68,9,4,0,0.00
2013-4-24,54.0,42.8,34.0,34.0,32.0,27.0,94,69,37,30.23,29.99,7,4,0,0.00
2013-4-25,70.0,52.7,32.0,40.0,32.6,28.0,87,52,23,30.28,30.09,4,1,0,0.00
2013-4-26,58.0,51.6,48.0,50.0,45.6,36.0,95,81,43,30.19,29.98,9,4,0,0.00
2013-4-27,57.0,53.2,50.0,56.0,52.1,49.0,97,96,93,30.01,29.82,7,3,0,0.00
2013-4-28,76.0,60.3,50.0,56.0,51.0,48.0,97,75,43,29.91,29.75,5,2,0,0.00
2013-4-29,83.0,68.4,51.0,62.0,55.3,49.0,94,66,40,29.77,29.62,8,3,0,0.00
2013-4-30,82.0,72.5,60.0,58.0,51.8,46.0,84,52,29,29.72,29.65,9,3,0,0.00
2013-5-1,84.0,70.6,58.0,64.0,57.3,50.0,85,64,40,29.92,29.72,6,2,0,0.00
2013-5-2,63.0,48.7,34.0,58.0,45.3,32.0,94,89,79,30.15,29.89,9,6,0,0.00
2013-5-3,47.0,38.2,33.0,38.0,33.6,31.0,96,84,55,30.14,29.86,11,7,0,0.00
2013-5-4,44.0,39.0,34.0,39.0,36.1,33.0,96,89,78,29.92,29.75,8,3,0,0.00
2013-5-5,59.0,47.6,35.0,49.0,42.3,34.0,97,83,61,30.00,29.91,8,4,0,0.00
2013-5-6,64.0,54.0,49.0,54.0,49.8,47.0,96,86,68,29.98,29.89,5,3,0,0.00
2013-5-7,77.0,61.5,44.0,57.0,50.0,43.0,98,70,39,29.97,29.85,4,1,0,0.00
2013-5-8,80.0,65.9,52.0,61.0,55.0,49.0,92,70,44,29.92,29.76,7,2,0,0.00
2013-5-9,77.0,64.6,58.0,63.0,59.2,56.0,97,84,58,29.84,29.73,8,3,0,0.00
2013-5-10,67.0,60.7,55.0,62.0,55.4,-99.9,98,88,71,29.93,29.75,7,3,0,0.00
2013-5-11,73.0,59.4,48.0,56.0,47.5,-99.9,97,70,33,30.09,29.92,8,3,0,0.00
2013-5-12,67.0,55.7,42.0,49.0,38.7,33.0,79,55,31,30.16,30.02,5,1,0,0.00
2013-5-13,81.0,64.8,47.0,59.0,50.3,44.0,89,63,39,30.05,29.91,7,2,0,0.00
2013-5-14,87.0,73.4,61.0,60.0,54.4,50.0,74,54,31,29.92,29.80,8,3,0,0.00
2013-5-15,74.0,67.6,62.0,66.0,60.0,51.0,95,77,56,29.84,29.72,7,2,0,0.00
2013-5-16,69.0,59.9,61.0,64.0,41.4,-99.9,96,91,82,29.74,29.68,3,1,0,0.00
2013-5-17,82.0,69.0,57.0,66.0,57.8,-99.9,98,79,53,29.79,29.72,3,1,0,0.00
2013-5-18,84.0,74.9,64.0,74.0,68.9,62.0,96,82,70,29.78,29.63,6,2,0,0.00
2013-5-19,88.0,78.5,72.0,70.0,66.6,63.0,91,69,44,29.69,29.48,9,5,0,0.00
2013-5-20,78.0,70.4,62.0,70.0,65.5,59.0,95,85,73,29.66,29.53,14,3,0,0.00
2013-5-21,65.0,61.3,58.0,61.0,59.1,56.0,97,92,85,29.78,29.44,11,4,0,0.00
2013-5-22,74.0,64.1,53.0,61.0,56.9,52.0,98,80,56,29.81,29.66,10,3,0,0.00
2013-5-23,74.0,65.0,55.0,62.0,58.2,54.0,97,80,61,30.01,29.81,5,2,0,0.00
2013-5-24,78.0,66.6,57.0,63.0,57.2,53.0,89,73,57,30.14,30.01,6,4,0,0.00
2013-5-25,83.0,70.8,59.0,67.0,59.6,51.0,81,68,57,30.09,29.91,6,3,0,0.00
2013-5-26,82.0,73.4,64.0,68.0,64.5,61.0,93,75,56,29.98,29.83,8,3,0,0.00
2013-5-27,83.0,74.6,67.0,69.0,65.8,60.0,93,75,57,29.85,29.65,9,5,0,0.00
2013-5-28,83.0,75.6,72.0,67.0,65.5,63.0,84,72,57,29.72,29.61,10,6,0,0.00
2013-5-29,79.0,74.8,69.0,68.0,65.5,64.0,85,73,64,29.73,29.59,9,5,0,0.00
2013-5-30,78.0,70.5,62.0,69.0,65.2,60.0,95,84,70,29.73,29.56,11,5,0,0.00
2013-5-31,85.0,75.0,62.0,73.0,69.2,60.0,97,83,65,29.65,29.49,10,4,0,0.00
2013-6-1,77.0,69.0,61.0,72.0,63.5,56.0,97,83,63,29.85,29.49,11,4,0,0.00
2013-6-2,67.0,61.4,55.0,58.0,55.9,53.0,95,83,68,29.92,29.84,6,2,0,0.00
2013-6-3,79.0,64.6,48.0,62.0,55.9,47.0,98,76,48,29.93,29.77,3,1,0,0.00
2013-6-4,79.0,68.7,63.0,67.0,62.0,58.0,88,80,65,29.85,29.75,6,2,0,0.00
2013-6-5,77.0,68.8,63.0,68.0,63.9,60.0,97,85,69,29.86,29.72,10,3,0,0.00
2013-6-6,73.0,65.9,59.0,64.0,60.6,56.0,98,84,66,29.81,29.74,7,2,0,0.00
2013-6-7,76.0,65.3,54.0,58.0,55.4,52.0,94,73,46,29.85,29.76,5,2,0,0.00
2013-6-8,81.0,68.5,53.0,61.0,57.0,51.0,95,69,48,29.81,29.70,4,2,0,0.00
2013-6-9,82.0,72.8,65.0,66.0,61.2,59.0,90,69,47,29.76,29.69,7,2,0,0.00
2013-6-10,90.0,78.2,65.0,71.0,65.8,59.0,82,67,46,29.78,29.70,8,4,0,0.00
2013-6-11,92.0,81.0,68.0,71.0,68.0,65.0,91,67,42,29.83,29.74,7,3,0,0.00
2013-6-12,90.0,81.5,74.0,72.0,70.2,67.0,87,70,51,29.82,29.72,10,4,0,0.00
2013-6-13,89.0,80.2,72.0,71.0,69.0,65.0,90,70,46,29.85,29.76,4,2,0,0.00
2013-6-14,91.0,80.0,70.0,75.0,70.6,66.0,89,74,58,29.86,29.76,4,2,0,0.00
2013-6-15,89.0,77.6,69.0,73.0,69.1,65.0,95,76,57,29.88,29.77,8,3,0,0.00
2013-6-16,88.0,76.6,69.0,74.0,69.8,66.0,96,81,60,29.85,29.75,7,2,0,0.00
2013-6-17,72.0,69.3,66.0,69.0,66.7,64.0,96,91,83,29.81,29.72,5,2,0,0.00
2013-6-18,85.0,73.9,63.0,69.0,65.5,62.0,99,78,49,29.89,29.80,3,1,0,0.00
2013-6-19,87.0,75.8,63.0,69.0,64.2,61.0,96,70,45,29.91,29.81,6,2,0,0.00
2013-6-20,89.0,76.1,67.0,72.0,67.3,64.0,91,76,57,29.91,29.85,6,2,0,0.00
2013-6-22,89.0,85.9,79.0,74.0,71.4,70.0,74,63,55,29.90,29.78,6,4,0,0.00
2013-6-23,90.0,81.0,72.0,73.0,70.5,68.0,91,72,53,29.83,29.75,9,4,0,0.00
2013-6-24,89.0,80.9,73.0,73.0,69.9,67.0,87,71,52,29.88,29.78,6,4,0,0.00
2013-6-25,87.0,80.3,74.0,72.0,69.7,68.0,87,71,55,29.82,29.68,9,4,0,0.00
2013-6-26,92.0,81.9,75.0,77.0,72.6,69.0,91,75,57,29.76,29.67,7,3,0,0.00
2013-6-27,96.0,84.6,73.0,76.0,73.7,71.0,97,72,46,29.81,29.69,4,1,0,0.00
2013-6-28,90.0,82.9,74.0,76.0,69.8,61.0,86,67,45,29.77,29.66,7,3,0,0.00
2013-6-29,86.0,76.2,66.0,63.0,57.4,53.0,78,54,34,29.73,29.65,11,5,0,0.00
2013-6-30,77.0,69.9,62.0,62.0,59.4,55.0,87,70,57,29.82,29.69,8,3,0,0.00
2013-7-1,80.0,70.3,61.0,62.0,56.6,49.0,91,65,36,29.90,29.82,8,3,0,0.00
2013-7-2,81.0,70.5,56.0,59.0,53.7,50.0,86,58,36,29.94,29.88,6,2,0,0.00
2013-7-3,85.0,72.0,56.0,60.0,53.2,47.0,90,56,29,29.97,29.85,4,1,0,0.00
2013-7-4,86.0,74.0,60.0,62.0,56.9,54.0,83,58,33,29.92,29.80,4,1,0,0.00
2013-7-5,89.0,76.6,60.0,62.0,58.8,54.0,88,57,31,29.89,29.77,5,2,0,0.00
2013-7-6,90.0,75.2,64.0,66.0,61.1,57.0,87,64,33,29.86,29.78,4,1,0,0.00
2013-7-7,91.0,80.4,68.0,70.0,64.8,59.0,86,61,35,29.89,29.82,5,2,0,0.00
2013-7-8,93.0,80.8,69.0,72.0,67.6,65.0,88,67,43,29.93,29.85,5,2,0,0.00
2013-7-9,94.0,83.5,72.0,72.0,69.8,68.0,89,65,45,29.92,29.79,7,3,0,0.00
2013-7-10,98.0,84.6,73.0,72.0,66.9,-99.9,83,59,41,29.85,29.72,5,2,0,0.00
2013-7-11,94.0,83.0,71.0,75.0,68.6,62.0,90,64,38,29.83,29.74,6,2,0,0.00
2013-7-12,93.0,81.5,72.0,71.0,64.8,61.0,72,58,42,29.88,29.79,5,2,0,0.00
2013-7-13,89.0,78.4,66.0,64.0,60.1,57.0,83,55,40,29.89,29.80,5,2,0,0.00
2013-7-14,87.0,78.3,65.0,62.0,58.6,50.0,81,53,28,29.90,29.80,6,2,0,0.00
2013-7-15,90.0,78.3,70.0,70.0,66.1,62.0,91,68,45,30.01,29.88,6,3,0,0.00
2013-7-16,88.0,76.7,69.0,73.0,69.7,67.0,95,80,55,30.11,30.01,5,1,0,0.00
2013-7-17,93.0,81.4,69.0,72.0,68.4,64.0,97,68,38,30.16,30.03,5,1,0,0.00
2013-7-18,93.0,82.6,69.0,72.0,67.9,64.0,91,64,38,30.05,29.86,5,1,0,0.00
2013-7-19,95.0,81.3,72.0,72.0,68.6,66.0,85,67,40,29.88,29.75,5,2,0,0.00
2013-7-20,93.0,79.0,70.0,73.0,69.3,67.0,91,74,47,29.80,29.66,6,2,0,0.00
2013-7-21,84.0,74.6,70.0,76.0,70.8,67.0,95,88,73,29.79,29.68,5,1,0,0.00
2013-7-22,89.0,76.8,67.0,74.0,68.7,63.0,89,77,56,29.83,29.68,10,3,0,0.00
2013-7-23,95.0,83.9,71.0,77.0,72.9,68.0,94,71,51,29.76,29.62,9,3,0,0.00
2013-7-24,86.0,75.6,67.0,71.0,69.0,65.0,95,81,62,29.86,29.68,10,3,0,0.00
2013-7-25,87.0,77.1,67.0,72.0,68.5,65.0,93,76,50,29.93,29.86,3,1,0,0.00
2013-7-26,75.0,71.5,67.0,71.0,69.0,66.0,96,92,86,29.89,29.83,3,1,0,0.00
2013-7-27,81.0,71.3,64.0,67.0,63.7,60.0,98,79,53,29.91,29.82,4,1,0,0.00
2013-7-28,80.0,70.0,64.0,66.0,62.6,59.0,89,78,57,29.89,29.84,5,1,0,0.00
2013-7-29,86.0,76.6,68.0,74.0,69.4,64.0,92,79,65,29.91,29.82,7,3,0,0.00
2013-7-30,86.0,77.5,70.0,75.0,72.2,68.0,98,85,66,29.89,29.82,9,2,0,0.00
2013-7-31,87.0,79.9,73.0,77.0,73.4,70.0,98,82,64,29.90,29.83,7,1,0,0.00
2013-8-1,89.0,77.9,67.0,70.0,67.8,64.0,95,74,45,29.93,29.82,3,1,0,0.00
2013-8-2,88.0,78.5,72.0,78.0,72.5,68.0,91,83,69,29.83,29.71,5,2,0,0.00
2013-8-3,86.0,78.4,68.0,76.0,72.6,67.0,96,83,66,29.93,29.72,7,2,0,0.00
2013-8-4,78.0,74.8,72.0,75.0,72.2,70.0,96,92,83,29.96,29.84,5,2,0,0.00
2013-8-5,91.0,80.6,72.0,80.0,74.3,70.0,96,82,62,29.88,29.68,6,2,0,0.00
2013-8-6,93.0,82.5,73.0,77.0,74.3,69.0,89,77,59,29.74,29.63,5,2,0,0.00
2013-8-7,91.0,81.0,74.0,80.0,74.8,72.0,93,82,64,29.79,29.65,5,2,0,0.00
2013-8-8,83.0,75.0,68.0,75.0,71.1,67.0,97,88,69,29.83,29.69,10,2,0,0.00
2013-8-9,84.0,75.7,70.0,73.0,70.9,68.0,96,86,69,29.88,29.75,6,2,0,0.00
2013-8-10,83.0,75.6,69.0,73.0,70.2,68.0,97,84,67,29.96,29.88,5,3,0,0.00
2013-8-11,88.0,78.1,70.0,75.0,71.4,68.0,95,81,59,29.93,29.85,4,1,0,0.00
2013-8-12,82.0,75.9,71.0,76.0,71.8,69.0,96,88,72,29.90,29.79,7,1,0,0.00
2013-8-13,78.0,71.2,68.0,73.0,67.2,-99.9,95,91,83,29.91,29.82,3,1,0,0.00
2013-8-14,78.0,69.8,63.0,64.0,59.3,-99.9,91,76,54,30.01,29.90,5,2,0,0.00
2013-8-15,77.0,60.2,56.0,60.0,40.5,-99.9,92,68,51,30.00,29.88,4,1,0,0.00
2013-8-16,77.0,66.5,62.0,62.0,55.1,-99.9,87,73,57,29.99,29.90,4,1,0,0.00
2013-8-17,78.0,66.5,57.0,63.0,57.5,-99.9,91,76,53,30.01,29.92,4,1,0,0.00
2013-8-18,84.0,72.5,61.0,67.0,62.4,58.0,93,73,46,30.01,29.91,3,1,0,0.00
2013-8-19,86.0,69.2,62.0,68.0,51.8,-99.9,93,72,45,29.98,29.86,3,1,0,0.00
2013-8-20,87.0,74.3,63.0,68.0,61.9,-99.9,92,71,44,29.95,29.86,4,1,0,0.00
2013-8-21,89.0,76.6,64.0,70.0,65.9,61.0,90,72,48,29.97,29.89,5,1,0,0.00
2013-8-22,90.0,79.1,67.0,72.0,68.5,64.0,90,72,47,29.97,29.87,4,1,0,0.00
2013-8-23,91.0,80.1,67.0,73.0,68.3,63.0,93,70,41,29.93,29.84,4,1,0,0.00
2013-8-24,90.0,79.0,69.0,73.0,67.6,-99.9,91,72,51,29.99,29.89,4,1,0,0.00
2013-8-25,92.0,81.1,71.0,74.0,70.6,67.0,90,72,44,30.05,29.97,4,1,0,0.00
2013-8-26,90.0,79.8,70.0,75.0,70.7,67.0,91,75,56,30.06,29.94,4,1,0,0.00
2013-8-27,88.0,74.2,66.0,71.0,66.8,63.0,91,79,48,29.98,29.92,5,1,0,0.00
2013-8-28,91.0,86.1,75.0,72.0,70.9,68.0,82,61,51,29.92,29.86,5,2,0,0.00
2013-8-29,93.0,81.4,70.0,73.0,70.2,67.0,90,71,46,29.92,29.83,5,1,0,0.00
2013-8-30,94.0,83.0,72.0,73.0,71.0,69.0,91,69,46,29.84,29.71,6,2,0,0.00
2013-8-31,96.0,82.4,72.0,74.0,68.7,-99.9,89,67,44,29.75,29.64,5,2,0,0.00
2013-9-1,91.0,79.3,74.0,74.0,70.1,68.0,86,75,48,29.75,29.64,7,2,0,0.00
2013-9-2,84.0,75.8,68.0,70.0,66.0,62.0,90,73,48,29.84,29.74,5,2,0,0.00
2013-9-3,86.0,69.3,62.0,66.0,50.7,-99.9,90,63,37,29.91,29.83,3,1,0,0.00
2013-9-4,85.0,69.7,62.0,66.0,56.9,51.0,76,64,49,29.98,29.90,0,0,0,0.00
2013-9-5,92.0,75.9,63.0,65.0,59.8,52.0,86,59,39,30.03,29.94,3,0,0,0.00
2013-9-6,90.0,75.3,62.0,66.0,62.5,59.0,90,68,41,29.99,29.86,4,1,0,0.00
2013-9-7,94.0,77.7,65.0,70.0,63.2,-99.9,89,66,39,29.90,29.78,4,1,0,0.00
2013-9-8,94.0,81.1,68.0,70.0,67.1,64.0,87,65,42,29.82,29.72,5,2,0,0.00
2013-9-9,95.0,81.3,67.0,68.0,65.7,61.0,88,62,34,29.85,29.77,6,2,0,0.00
2013-9-10,94.0,79.5,66.0,69.0,64.3,60.0,87,63,33,29.97,29.83,6,2,0,0.00
2013-9-11,92.0,80.5,68.0,71.0,67.4,65.0,89,67,44,29.99,29.88,5,1,0,0.00
2013-9-12,91.0,79.0,69.0,72.0,68.4,65.0,90,72,48,29.95,29.83,9,2,0,0.00
2013-9-13,83.0,72.7,62.0,68.0,56.9,51.0,83,60,38,29.93,29.83,8,4,0,0.00
2013-9-14,81.0,66.9,55.0,56.0,50.7,-99.9,88,61,35,29.94,29.84,7,2,0,0.00
2013-9-15,89.0,73.0,60.0,66.0,59.4,52.0,77,64,45,29.89,29.84,6,2,0,0.00
2013-9-16,78.0,72.1,68.0,69.0,66.1,63.0,90,82,67,30.04,29.89,5,2,0,0.00
2013-9-17,83.0,74.1,67.0,70.0,66.4,64.0,90,78,56,29.99,29.85,6,2,0,0.00
2013-9-18,78.0,71.6,70.0,68.0,65.8,64.0,84,82,69,29.86,29.79,2,1,0,0.00
2013-9-19,90.0,78.9,70.0,70.0,67.8,65.0,86,70,48,29.83,29.70,9,3,0,0.00
2013-9-20,76.0,66.1,58.0,68.0,62.2,53.0,94,87,69,29.83,29.75,9,3,0,0.00
2013-9-21,75.0,61.4,49.0,55.0,49.0,-99.9,93,69,41,29.90,29.79,7,2,0,0.00
2013-9-22,78.0,62.3,47.0,54.0,49.7,45.0,93,67,37,29.85,29.74,5,1,0,0.00
2013-9-23,80.0,65.6,51.0,58.0,53.6,48.0,91,67,41,29.79,29.66,6,2,0,0.00
2013-9-24,76.0,66.5,57.0,60.0,57.0,54.0,89,73,54,29.76,29.70,10,3,0,0.00
2013-9-25,80.0,67.7,55.0,63.0,58.8,52.0,92,75,52,29.75,29.67,5,2,0,0.00
2013-9-26,82.0,65.0,57.0,63.0,58.2,54.0,92,81,51,29.81,29.71,5,1,0,0.00
2013-9-30,82.0,68.4,56.0,67.0,61.0,54.0,94,79,53,29.80,29.71,6,2,0,0.00
2013-10-1,78.0,73.7,70.0,68.0,67.5,67.0,89,81,70,29.84,29.79,3,1,0,0.00
2013-10-2,82.0,73.4,66.0,71.0,67.5,64.0,94,82,64,29.87,29.75,7,2,0,0.00
2013-10-3,84.0,74.6,66.0,71.0,67.4,64.0,92,79,60,29.79,29.68,11,5,0,0.00
2013-10-4,84.0,75.3,69.0,71.0,67.6,64.0,91,78,60,29.76,29.68,10,4,0,0.00
2013-10-5,72.0,56.9,47.0,69.0,54.3,45.0,93,91,84,29.91,29.73,10,3,0,0.00
2013-10-6,61.0,53.0,45.0,47.0,44.7,41.0,93,75,56,29.91,29.84,10,4,0,0.00
2013-10-7,70.0,56.9,44.0,50.0,46.0,42.0,92,70,41,30.04,29.90,7,2,0,0.00
2013-10-8,74.0,59.4,45.0,52.0,48.0,43.0,93,70,40,30.03,29.93,7,2,0,0.00
2013-10-9,76.0,61.0,45.0,56.0,49.1,43.0,92,69,38,29.99,29.91,5,1,0,0.00
2013-10-10,78.0,61.8,47.0,60.0,52.8,45.0,93,75,47,29.97,29.80,6,2,0,0.00
2013-10-11,75.0,65.7,55.0,67.0,60.0,52.0,91,82,68,29.80,29.71,11,4,0,0.00
2013-10-12,69.0,64.1,60.0,64.0,59.3,-99.9,93,87,80,30.03,29.75,8,3,0,0.00
2013-10-13,73.0,63.3,58.0,57.0,52.8,48.0,86,70,55,30.19,30.03,8,4,0,0.00
2013-10-14,67.0,61.5,57.0,62.0,54.9,48.0,91,79,67,30.12,29.84,8,4,0,0.00
2013-10-15,65.0,58.8,52.0,63.0,55.8,48.0,92,90,81,29.93,29.75,8,4,0,0.00
2013-10-16,60.0,51.5,43.0,49.0,44.3,40.0,91,77,57,30.01,29.88,8,3,0,0.00
2013-10-17,64.0,51.5,41.0,48.0,44.3,39.0,93,78,52,29.95,29.85,7,2,0,0.00
2013-10-18,61.0,49.2,41.0,51.0,45.0,39.0,92,85,66,29.96,29.85,7,2,0,0.00
2013-10-19,59.0,45.4,36.0,42.0,36.6,-99.9,92,76,44,30.04,29.92,8,4,0,0.00
2013-10-20,67.0,52.8,38.0,45.0,41.0,36.0,92,68,36,29.93,29.77,9,3,0,0.00
2013-10-21,55.0,49.1,39.0,49.0,43.2,36.0,90,80,61,30.00,29.84,6,1,0,0.00
2013-10-22,66.0,50.3,36.0,48.0,40.6,34.0,93,72,49,29.99,29.84,12,4,0,0.00
2013-10-23,63.0,49.3,37.0,44.0,38.8,34.0,90,69,41,30.06,29.89,5,1,0,0.00
2013-10-24,54.0,45.7,39.0,41.0,36.1,30.0,92,71,44,30.30,29.98,9,3,0,0.00
2013-10-25,60.0,49.9,32.0,35.0,31.6,26.0,89,52,32,30.39,30.11,8,3,0,0.00
2013-10-26,63.0,52.8,43.0,55.0,44.9,-99.9,88,76,69,30.12,29.98,8,3,0,0.00
2013-10-27,65.0,51.9,42.0,51.0,42.6,34.0,91,73,34,29.99,29.86,3,1,0,0.00
2013-10-28,67.0,57.2,42.0,56.0,50.5,-99.9,93,82,62,30.04,29.91,6,2,0,0.00
2013-10-29,69.0,63.9,56.0,65.0,60.4,53.0,91,88,84,30.02,29.83,11,6,0,0.00
2013-10-30,67.0,65.0,62.0,64.0,62.2,59.0,92,90,88,29.89,29.66,9,4,0,0.00
2013-10-31,71.0,61.3,50.0,64.0,57.2,47.0,91,87,51,29.67,29.35,16,6,0,0.00
2013-11-1,67.0,55.6,47.0,48.0,44.0,41.0,86,67,39,29.88,29.62,7,3,0,0.00
2013-11-2,55.0,45.9,37.0,43.0,36.2,-99.9,89,73,52,30.11,29.88,10,4,0,0.00
2013-11-3,62.0,46.9,33.0,43.0,37.5,31.0,92,72,44,30.12,29.91,10,4,0,0.00
2013-11-4,58.0,54.3,51.0,52.0,46.9,42.0,89,76,68,30.03,29.90,11,6,0,0.00
2013-11-5,62.0,57.8,54.0,59.0,54.8,51.0,91,91,89,30.02,29.81,7,5,0,0.00
2013-11-6,62.0,45.3,34.0,59.0,42.2,32.0,92,89,78,30.24,29.75,12,6,0,0.00
2013-11-7,61.0,43.9,29.0,43.0,35.2,27.0,92,75,39,30.36,30.24,6,2,0,0.00
2013-11-8,64.0,48.3,35.0,43.0,37.8,33.0,92,70,36,30.26,29.97,11,4,0,0.00
2013-11-9,64.0,52.2,43.0,46.0,40.8,-99.9,88,69,49,30.15,29.98,6,2,0,0.00
2013-11-10,68.0,55.4,45.0,47.0,43.6,41.0,90,67,41,30.25,30.15,6,1,0,0.00
2013-11-11,67.0,54.4,42.0,54.0,47.1,38.0,89,77,62,30.28,30.05,10,3,0,0.00
2013-11-12,42.0,33.1,25.0,38.0,21.5,16.0,87,64,38,30.61,30.28,10,6,0,0.00
2013-11-13,49.0,34.5,22.0,24.0,20.2,16.0,86,59,31,30.61,30.24,6,3,0,0.00
2013-11-14,52.0,41.4,27.0,35.0,25.0,20.0,77,54,32,30.24,29.94,9,4,0,0.00
2013-11-15,59.0,50.1,43.0,48.0,43.2,34.0,90,78,63,29.94,29.73,10,5,0,0.00
2013-11-16,69.0,61.5,51.0,64.0,55.3,-99.9,91,83,72,29.74,29.48,16,10,0,0.00
2013-11-17,72.0,66.1,52.0,65.0,46.4,23.0,84,53,28,29.93,29.39,17,9,0,0.00
2013-11-18,63.0,50.1,39.0,38.0,29.4,23.0,79,49,23,30.14,29.91,8,3,0,0.00
2013-11-19,59.0,50.6,42.0,35.0,26.4,18.0,62,41,26,30.13,29.94,9,4,0,0.00
2013-11-20,61.0,53.1,44.0,41.0,27.4,14.0,54,38,23,29.94,29.79,12,5,0,0.00
2013-11-21,57.0,50.4,43.0,48.0,46.3,40.0,92,87,55,30.13,29.86,11,4,0,0.00
2013-11-22,40.0,32.6,31.0,38.0,30.6,29.0,93,92,91,30.44,30.16,12,7,0,0.00
2013-11-23,39.0,31.6,24.0,30.0,21.9,-99.9,91,71,47,30.58,30.42,9,6,0,0.00
2013-11-24,32.0,26.0,19.0,18.0,14.7,12.0,77,63,51,30.60,30.27,10,4,0,0.00
2013-11-25,36.0,33.2,30.0,31.0,25.7,17.0,88,74,53,30.27,30.09,5,2,0,0.00
2013-11-26,45.0,34.5,27.0,31.0,26.9,19.0,88,74,52,30.24,30.04,15,7,0,0.00
2013-11-27,38.0,27.3,18.0,18.0,14.0,12.0,79,59,36,30.36,30.23,11,3,0,0.00
2013-12-2,65.0,48.8,39.0,52.0,43.7,37.0,92,83,56,29.77,29.54,4,1,0,0.00
2013-12-3,70.0,51.7,39.0,52.0,45.0,37.0,92,80,44,29.57,29.41,8,2,0,0.00
2013-12-4,60.0,46.0,32.0,50.0,41.9,29.0,91,86,64,29.83,29.41,11,5,0,0.00
2013-12-5,31.0,24.5,20.0,28.0,20.3,17.0,91,84,68,30.21,29.85,10,7,0,0.00
2013-12-6,20.0,18.2,16.0,18.0,14.5,9.0,90,85,71,30.49,30.16,9,6,0,0.00
2013-12-7,23.0,15.7,6.0,14.0,5.8,-99.9,80,68,52,30.58,30.26,8,4,0,0.00
2013-12-8,27.0,23.5,22.0,25.0,19.6,12.0,92,85,66,30.26,29.97,6,3,0,0.00
2013-12-14,36.0,31.5,25.0,34.0,27.9,-99.9,92,89,86,30.16,29.74,12,6,0,0.00
2013-12-15,50.0,33.5,19.0,36.0,27.5,17.0,92,80,55,30.19,30.05,6,2,0,0.00
2013-12-16,62.0,47.7,40.0,39.0,34.5,32.0,74,61,37,30.04,29.96,7,4,0,0.00
2013-12-17,58.0,43.0,31.0,38.0,31.5,27.0,91,67,37,30.19,30.01,11,2,0,0.00
2013-12-18,62.0,45.1,29.0,40.0,33.1,26.0,87,65,39,30.18,29.85,13,5,0,0.00
2013-12-19,60.0,55.7,51.0,54.0,49.0,41.0,85,78,63,29.85,29.58,13,9,0,0.00
2013-12-20,63.0,42.6,32.0,58.0,39.7,30.0,92,89,84,29.77,29.57,10,5,0,0.00